Time,TemperatureF,DewpointF,PressureIn,WindDirection,WindDirectionDegrees,WindSpeedMPH,WindSpeedGustMPH,Humidity,HourlyPrecipIn,Conditions,Clouds,dailyrainin,SoftwareType,DateUTC
2013-02-22 00:02:00,22.0,-99.9,-100.00,ENE,77,16.0,23.0,-999,-99.99,,,-99.99,,2013-02-22 05:02:00,
2013-02-22 00:12:00,23.0,-99.9,-100.00,East,79,13.0,21.0,-999,-99.99,,,-99.99,,2013-02-22 05:12:00,
2013-02-22 00:22:00,23.0,-99.9,-100.00,East,79,13.0,21.0,-999,-99.99,,,-99.99,,2013-02-22 05:22:00,
2013-02-22 00:32:00,23.0,-99.9,-100.00,East,79,13.0,21.0,-999,-99.99,,,-99.99,,2013-02-22 05:32:00,
2013-02-22 00:40:00,24.0,-99.9,-100.00,East,82,15.0,24.0,-999,-99.99,,,-99.99,,2013-02-22 05:40:00,
2013-02-22 01:22:00,24.0,-99.9,-100.00,East,82,15.0,24.0,-999,-99.99,,,-99.99,,2013-02-22 06:22:00,
2013-02-22 01:32:00,24.0,-99.9,-100.00,East,82,15.0,24.0,-999,-99.99,,,-99.99,,2013-02-22 06:32:00,
2013-02-22 01:40:00,25.0,-99.9,-100.00,East,93,19.0,27.0,-999,-99.99,,,-99.99,,2013-02-22 06:40:00,
2013-02-22 01:52:00,25.0,-99.9,-100.00,East,97,19.0,30.0,-999,-99.99,,,-99.99,,2013-02-22 06:52:00,
2013-02-22 02:01:00,25.0,-99.9,-100.00,East,97,19.0,30.0,-999,-99.99,,,-99.99,,2013-02-22 07:01:00,
2013-02-22 02:11:00,25.0,-99.9,-100.00,East,93,19.0,27.0,-999,-99.99,,,-99.99,,2013-02-22 07:11:00,
2013-02-22 02:22:00,25.0,-99.9,-100.00,East,93,19.0,27.0,-999,-99.99,,,-99.99,,2013-02-22 07:22:00,
2013-02-22 02:32:00,25.0,-99.9,-100.00,East,93,19.0,27.0,-999,-99.99,,,-99.99,,2013-02-22 07:32:00,
2013-02-22 02:52:00,25.0,-99.9,-100.00,ESE,102,20.0,0.0,-999,-99.99,,,-99.99,,2013-02-22 07:52:00,
2013-02-22 03:01:00,25.0,-99.9,-100.00,ESE,102,20.0,0.0,-999,-99.99,,,-99.99,,2013-02-22 08:01:00,
2013-02-22 03:11:00,25.0,-99.9,-100.00,East,97,23.0,28.0,-999,-99.99,,,-99.99,,2013-02-22 08:11:00,
2013-02-22 03:21:00,26.0,-99.9,-100.00,East,99,22.0,29.0,-999,-99.99,,,-99.99,,2013-02-22 08:21:00,
2013-02-22 03:32:00,26.0,-99.9,-100.00,East,99,22.0,29.0,-999,-99.99,,,-99.99,,2013-02-22 08:32:00,
2013-02-22 03:40:00,26.0,-99.9,-100.00,East,97,19.0,28.0,-999,-99.99,,,-99.99,,2013-02-22 08:40:00,
2013-02-22 03:42:00,26.0,-99.9,-100.00,East,99,22.0,29.0,-999,-99.99,,,-99.99,,2013-02-22 08:42:00,
2013-02-22 03:52:00,26.0,-99.9,-100.00,East,95,20.0,30.0,-999,-99.99,,,-99.99,,2013-02-22 08:52:00,
2013-02-22 04:03:00,26.0,-99.9,-100.00,East,95,20.0,30.0,-999,-99.99,,,-99.99,,2013-02-22 09:03:00,
2013-02-22 04:11:00,26.0,-99.9,-100.00,East,97,19.0,28.0,-999,-99.99,,,-99.99,,2013-02-22 09:11:00,
2013-02-22 04:22:00,26.0,-99.9,-100.00,East,97,19.0,28.0,-999,-99.99,,,-99.99,,2013-02-22 09:22:00,
2013-02-22 04:32:00,26.0,-99.9,-100.00,East,97,19.0,28.0,-999,-99.99,,,-99.99,,2013-02-22 09:32:00,
2013-02-22 05:32:00,26.0,-99.9,-100.00,East,91,17.0,25.0,-999,-99.99,,,-99.99,,2013-02-22 10:32:00,
2013-02-22 05:42:00,26.0,-99.9,-100.00,East,91,17.0,25.0,-999,-99.99,,,-99.99,,2013-02-22 10:42:00,
2013-02-22 05:52:00,26.0,-99.9,-100.00,East,91,17.0,25.0,-999,-99.99,,,-99.99,,2013-02-22 10:52:00,
2013-02-22 06:01:00,26.0,-99.9,-100.00,East,91,17.0,25.0,-999,-99.99,,,-99.99,,2013-02-22 11:01:00,
2013-02-22 06:11:00,26.0,-99.9,-100.00,East,96,18.0,26.0,-999,-99.99,,,-99.99,,2013-02-22 11:11:00,
2013-02-22 06:22:00,26.0,-99.9,-100.00,East,96,18.0,26.0,-999,-99.99,,,-99.99,,2013-02-22 11:22:00,
2013-02-22 06:32:00,26.0,-99.9,-100.00,East,92,15.0,28.0,-999,-99.99,,,-99.99,,2013-02-22 11:32:00,
2013-02-22 06:42:00,26.0,-99.9,-100.00,East,92,15.0,28.0,-999,-99.99,,,-99.99,,2013-02-22 11:42:00,
2013-02-22 06:52:00,26.0,-99.9,-100.00,East,92,15.0,28.0,-999,-99.99,,,-99.99,,2013-02-22 11:52:00,
2013-02-22 07:02:00,27.0,-99.9,-100.00,East,87,17.0,30.0,-999,-99.99,,,-99.99,,2013-02-22 12:02:00,
2013-02-22 07:11:00,27.0,-99.9,-100.00,East,91,22.0,30.0,-999,-99.99,,,-99.99,,2013-02-22 12:11:00,
2013-02-22 07:22:00,27.0,-99.9,-100.00,East,91,22.0,30.0,-999,-99.99,,,-99.99,,2013-02-22 12:22:00,
2013-02-22 07:32:00,27.0,-99.9,-100.00,East,91,22.0,30.0,-999,-99.99,,,-99.99,,2013-02-22 12:32:00,
2013-02-22 07:42:00,27.0,-99.9,-100.00,East,92,19.0,0.0,-999,-99.99,,,-99.99,,2013-02-22 12:42:00,
2013-02-22 07:52:00,27.0,-99.9,-100.00,East,92,19.0,0.0,-999,-99.99,,,-99.99,,2013-02-22 12:52:00,
2013-02-22 08:02:00,27.0,-99.9,-100.00,East,92,19.0,0.0,-999,-99.99,,,-99.99,,2013-02-22 13:02:00,
2013-02-22 08:11:00,27.0,-99.9,-100.00,East,88,15.0,28.0,-999,-99.99,,,-99.99,,2013-02-22 13:11:00,
2013-02-22 08:22:00,27.0,-99.9,-100.00,East,88,15.0,28.0,-999,-99.99,,,-99.99,,2013-02-22 13:22:00,
2013-02-22 08:32:00,27.0,-99.9,-100.00,East,88,15.0,28.0,-999,-99.99,,,-99.99,,2013-02-22 13:32:00,
2013-02-22 08:42:00,27.0,-99.9,-100.00,East,89,21.0,30.0,-999,-99.99,,,-99.99,,2013-02-22 13:42:00,
2013-02-22 08:52:00,27.0,-99.9,-100.00,East,89,21.0,30.0,-999,-99.99,,,-99.99,,2013-02-22 13:52:00,
2013-02-22 09:01:00,28.0,-99.9,-100.00,East,92,20.0,29.0,-999,-99.99,,,-99.99,,2013-02-22 14:01:00,
2013-02-22 09:12:00,28.0,-99.9,-100.00,East,92,20.0,29.0,-999,-99.99,,,-99.99,,2013-02-22 14:12:00,
2013-02-22 09:22:00,28.0,-99.9,-100.00,East,92,20.0,29.0,-999,-99.99,,,-99.99,,2013-02-22 14:22:00,
2013-02-22 09:32:00,28.0,-99.9,-100.00,East,91,20.0,0.0,-999,-99.99,,,-99.99,,2013-02-22 14:32:00,
2013-02-22 09:42:00,28.0,-99.9,-100.00,East,91,20.0,0.0,-999,-99.99,,,-99.99,,2013-02-22 14:42:00,
2013-02-22 09:53:00,28.0,-99.9,-100.00,East,91,20.0,0.0,-999,-99.99,,,-99.99,,2013-02-22 14:53:00,
2013-02-22 10:02:00,26.0,-99.9,-100.00,ENE,73,20.0,29.0,-999,-99.99,,,-99.99,,2013-02-22 15:02:00,
2013-02-22 10:12:00,26.0,-99.9,-100.00,ENE,73,20.0,29.0,-999,-99.99,,,-99.99,,2013-02-22 15:12:00,
2013-02-22 10:22:00,25.0,-99.9,-100.00,ENE,68,16.0,0.0,-999,-99.99,,,-99.99,,2013-02-22 15:22:00,
2013-02-22 10:32:00,25.0,-99.9,-100.00,ENE,68,16.0,0.0,-999,-99.99,,,-99.99,,2013-02-22 15:32:00,
2013-02-22 10:42:00,25.0,-99.9,-100.00,ENE,68,16.0,0.0,-999,-99.99,,,-99.99,,2013-02-22 15:42:00,
2013-02-22 10:52:00,25.0,-99.9,-100.00,ENE,68,16.0,0.0,-999,-99.99,,,-99.99,,2013-02-22 15:52:00,
2013-02-22 11:02:00,25.0,-99.9,-100.00,ENE,78,20.0,30.0,-999,-99.99,,,-99.99,,2013-02-22 16:02:00,
2013-02-22 11:12:00,25.0,-99.9,-100.00,ENE,78,20.0,30.0,-999,-99.99,,,-99.99,,2013-02-22 16:12:00,
2013-02-22 11:22:00,25.0,-99.9,-100.00,ENE,78,20.0,30.0,-999,-99.99,,,-99.99,,2013-02-22 16:22:00,
2013-02-22 11:32:00,25.0,-99.9,-100.00,ENE,73,16.0,0.0,-999,-99.99,,,-99.99,,2013-02-22 16:32:00,
2013-02-22 11:42:00,25.0,-99.9,-100.00,ENE,73,16.0,0.0,-999,-99.99,,,-99.99,,2013-02-22 16:42:00,
2013-02-22 11:52:00,25.0,-99.9,-100.00,ENE,73,16.0,0.0,-999,-99.99,,,-99.99,,2013-02-22 16:52:00,
2013-02-22 12:01:00,25.0,-99.9,-100.00,ENE,68,18.0,31.0,-999,-99.99,,,-99.99,,2013-02-22 17:01:00,
2013-02-22 12:12:00,25.0,-99.9,-100.00,ENE,68,18.0,31.0,-999,-99.99,,,-99.99,,2013-02-22 17:12:00,
2013-02-22 12:22:00,25.0,-99.9,-100.00,ENE,69,16.0,0.0,-999,-99.99,,,-99.99,,2013-02-22 17:22:00,
2013-02-22 12:32:00,25.0,-99.9,-100.00,ENE,69,16.0,0.0,-999,-99.99,,,-99.99,,2013-02-22 17:32:00,
2013-02-22 12:42:00,25.0,-99.9,-100.00,ENE,69,16.0,0.0,-999,-99.99,,,-99.99,,2013-02-22 17:42:00,
2013-02-22 12:52:00,25.0,-99.9,-100.00,ENE,69,16.0,0.0,-999,-99.99,,,-99.99,,2013-02-22 17:52:00,
2013-02-22 13:02:00,26.0,-99.9,-100.00,ENE,66,16.0,28.0,-999,-99.99,,,-99.99,,2013-02-22 18:02:00,
2013-02-22 13:10:00,25.0,-99.9,-100.00,ENE,63,18.0,30.0,-999,-99.99,,,-99.99,,2013-02-22 18:10:00,
2013-02-22 13:12:00,26.0,-99.9,-100.00,ENE,66,16.0,28.0,-999,-99.99,,,-99.99,,2013-02-22 18:12:00,
2013-02-22 13:23:00,26.0,-99.9,-100.00,ENE,66,16.0,28.0,-999,-99.99,,,-99.99,,2013-02-22 18:23:00,
2013-02-22 13:32:00,25.0,-99.9,-100.00,ENE,63,18.0,30.0,-999,-99.99,,,-99.99,,2013-02-22 18:32:00,
2013-02-22 13:40:00,25.0,-99.9,-100.00,ENE,71,16.0,30.0,-999,-99.99,,,-99.99,,2013-02-22 18:40:00,
2013-02-22 13:42:00,25.0,-99.9,-100.00,ENE,63,18.0,30.0,-999,-99.99,,,-99.99,,2013-02-22 18:42:00,
2013-02-22 13:52:00,25.0,-99.9,-100.00,ENE,63,18.0,30.0,-999,-99.99,,,-99.99,,2013-02-22 18:52:00,
2013-02-22 14:01:00,25.0,-99.9,-100.00,ENE,63,18.0,30.0,-999,-99.99,,,-99.99,,2013-02-22 19:01:00,
2013-02-22 15:01:00,24.0,-99.9,-100.00,ENE,67,15.0,25.0,-999,-99.99,,,-99.99,,2013-02-22 20:01:00,
2013-02-22 15:11:00,24.0,-99.9,-100.00,ENE,67,15.0,25.0,-999,-99.99,,,-99.99,,2013-02-22 20:11:00,
2013-02-22 15:22:00,24.0,-99.9,-100.00,ENE,67,15.0,29.0,-999,-99.99,,,-99.99,,2013-02-22 20:22:00,
2013-02-22 15:32:00,24.0,-99.9,-100.00,ENE,67,15.0,29.0,-999,-99.99,,,-99.99,,2013-02-22 20:32:00,
2013-02-22 15:42:00,24.0,-99.9,-100.00,ENE,67,15.0,29.0,-999,-99.99,,,-99.99,,2013-02-22 20:42:00,
2013-02-22 15:52:00,24.0,-99.9,-100.00,ENE,67,15.0,29.0,-999,-99.99,,,-99.99,,2013-02-22 20:52:00,
2013-02-22 16:02:00,24.0,-99.9,-100.00,ENE,70,17.0,25.0,-999,-99.99,,,-99.99,,2013-02-22 21:02:00,
2013-02-22 16:11:00,24.0,-99.9,-100.00,ENE,70,17.0,25.0,-999,-99.99,,,-99.99,,2013-02-22 21:11:00,
2013-02-22 16:22:00,24.0,-99.9,-100.00,ENE,74,16.0,27.0,-999,-99.99,,,-99.99,,2013-02-22 21:22:00,
2013-02-22 16:32:00,24.0,-99.9,-100.00,ENE,74,16.0,27.0,-999,-99.99,,,-99.99,,2013-02-22 21:32:00,
2013-02-22 16:42:00,24.0,-99.9,-100.00,ENE,74,16.0,27.0,-999,-99.99,,,-99.99,,2013-02-22 21:42:00,
2013-02-22 16:52:00,24.0,-99.9,-100.00,ENE,74,16.0,27.0,-999,-99.99,,,-99.99,,2013-02-22 21:52:00,
2013-02-22 17:02:00,25.0,-99.9,-100.00,ENE,60,15.0,27.0,-999,-99.99,,,-99.99,,2013-02-22 22:02:00,
2013-02-22 17:11:00,25.0,-99.9,-100.00,ENE,60,15.0,27.0,-999,-99.99,,,-99.99,,2013-02-22 22:11:00,
2013-02-22 17:22:00,25.0,-99.9,-100.00,ENE,74,16.0,27.0,-999,-99.99,,,-99.99,,2013-02-22 22:22:00,
2013-02-22 17:32:00,25.0,-99.9,-100.00,ENE,74,16.0,27.0,-999,-99.99,,,-99.99,,2013-02-22 22:32:00,
2013-02-22 17:40:00,26.0,-99.9,-100.00,ENE,74,14.0,21.0,-999,-99.99,,,-99.99,,2013-02-22 22:40:00,
2013-02-22 17:42:00,25.0,-99.9,-100.00,ENE,74,16.0,27.0,-999,-99.99,,,-99.99,,2013-02-22 22:42:00,
2013-02-22 17:52:00,25.0,-99.9,-100.00,ENE,74,16.0,27.0,-999,-99.99,,,-99.99,,2013-02-22 22:52:00,
2013-02-22 18:01:00,26.0,-99.9,-100.00,ENE,74,14.0,21.0,-999,-99.99,,,-99.99,,2013-02-22 23:01:00,
2013-02-22 18:11:00,26.0,-99.9,-100.00,ENE,74,14.0,21.0,-999,-99.99,,,-99.99,,2013-02-22 23:11:00,
2013-02-22 18:22:00,26.0,-99.9,-100.00,ENE,74,14.0,21.0,-999,-99.99,,,-99.99,,2013-02-22 23:22:00,
2013-02-22 18:32:00,26.0,-99.9,-100.00,ENE,74,14.0,21.0,-999,-99.99,,,-99.99,,2013-02-22 23:32:00,
2013-02-22 18:40:00,27.0,-99.9,-100.00,ENE,71,15.0,23.0,-999,-99.99,,,-99.99,,2013-02-22 23:40:00,
2013-02-22 19:02:00,27.0,-99.9,-100.00,ENE,71,15.0,23.0,-999,-99.99,,,-99.99,,2013-02-23 00:02:00,
2013-02-22 19:11:00,27.0,-99.9,-100.00,ENE,71,15.0,23.0,-999,-99.99,,,-99.99,,2013-02-23 00:11:00,
2013-02-22 19:22:00,27.0,-99.9,-100.00,ENE,71,15.0,23.0,-999,-99.99,,,-99.99,,2013-02-23 00:22:00,
2013-02-22 19:32:00,27.0,-99.9,-100.00,ENE,71,15.0,23.0,-999,-99.99,,,-99.99,,2013-02-23 00:32:00,
2013-02-22 19:40:00,27.0,-99.9,-100.00,East,81,10.0,14.0,-999,-99.99,,,-99.99,,2013-02-23 00:40:00,
2013-02-22 20:02:00,27.0,-99.9,-100.00,East,81,10.0,14.0,-999,-99.99,,,-99.99,,2013-02-23 01:02:00,
2013-02-22 20:11:00,27.0,-99.9,-100.00,East,81,10.0,14.0,-999,-99.99,,,-99.99,,2013-02-23 01:11:00,
2013-02-22 20:22:00,27.0,-99.9,-100.00,East,81,10.0,14.0,-999,-99.99,,,-99.99,,2013-02-23 01:22:00,
2013-02-22 20:32:00,27.0,-99.9,-100.00,East,81,10.0,14.0,-999,-99.99,,,-99.99,,2013-02-23 01:32:00,
2013-02-22 20:40:00,28.0,-99.9,-100.00,South,173,5.0,10.0,-999,-99.99,,,-99.99,,2013-02-23 01:40:00,
2013-02-22 21:02:00,28.0,-99.9,-100.00,South,173,5.0,10.0,-999,-99.99,,,-99.99,,2013-02-23 02:02:00,
2013-02-22 21:11:00,28.0,-99.9,-100.00,South,173,5.0,10.0,-999,-99.99,,,-99.99,,2013-02-23 02:11:00,
2013-02-22 21:22:00,28.0,-99.9,-100.00,South,173,5.0,10.0,-999,-99.99,,,-99.99,,2013-02-23 02:22:00,
2013-02-22 21:32:00,28.0,-99.9,-100.00,South,173,5.0,10.0,-999,-99.99,,,-99.99,,2013-02-23 02:32:00,
2013-02-22 21:40:00,27.0,-99.9,-100.00,South,182,4.0,6.0,-999,-99.99,,,-99.99,,2013-02-23 02:40:00,
2013-02-22 22:02:00,27.0,-99.9,-100.00,South,182,4.0,6.0,-999,-99.99,,,-99.99,,2013-02-23 03:02:00,
2013-02-22 22:11:00,27.0,-99.9,-100.00,South,182,4.0,6.0,-999,-99.99,,,-99.99,,2013-02-23 03:11:00,
2013-02-22 22:22:00,27.0,-99.9,-100.00,South,182,4.0,6.0,-999,-99.99,,,-99.99,,2013-02-23 03:22:00,
2013-02-22 22:32:00,27.0,-99.9,-100.00,South,182,4.0,6.0,-999,-99.99,,,-99.99,,2013-02-23 03:32:00,
2013-02-22 22:40:00,28.0,-99.9,-100.00,SSW,202,4.0,5.0,-999,-99.99,,,-99.99,,2013-02-23 03:40:00,
2013-02-22 23:01:00,28.0,-99.9,-100.00,SSW,202,4.0,5.0,-999,-99.99,,,-99.99,,2013-02-23 04:01:00,
2013-02-22 23:11:00,28.0,-99.9,-100.00,SSW,202,4.0,5.0,-999,-99.99,,,-99.99,,2013-02-23 04:11:00,
2013-02-22 23:22:00,28.0,-99.9,-100.00,SSW,202,4.0,5.0,-999,-99.99,,,-99.99,,2013-02-23 04:22:00,
2013-02-22 23:32:00,28.0,-99.9,-100.00,SSW,202,4.0,5.0,-999,-99.99,,,-99.99,,2013-02-23 04:32:00,
2013-02-22 23:40:00,27.0,-99.9,-100.00,WNW,289,4.0,4.0,-999,-99.99,,,-99.99,,2013-02-23 04:40:00,